EDT,Max TemperatureF,Mean TemperatureF,Min TemperatureF,Max Dew PointF,MeanDew PointF,Min DewpointF,Max Humidity, Mean Humidity, Min Humidity, Max Sea Level PressureIn, Mean Sea Level PressureIn, Min Sea Level PressureIn, Max VisibilityMiles, Mean VisibilityMiles, Min VisibilityMiles, Max Wind SpeedMPH, Mean Wind SpeedMPH, Max Gust SpeedMPH,PrecipitationIn, CloudCover, Events, WindDirDegrees
2013-6-1,88,78,67,67,64,61,93,67,40,30.10,30.05,29.99,10,10,10,15,7,23,0.00,0,,210
2013-6-2,85,77,68,70,66,64,93,76,58,29.99,29.94,29.88,10,8,2,17,7,25,0.37,5,Rain-Thunderstorm,218
2013-6-3,84,75,65,70,66,64,100,78,55,29.97,29.90,29.82,10,8,0,16,4,20,0.19,6,Fog-Rain-Thunderstorm,244
2013-6-4,79,70,61,66,62,59,100,77,54,30.10,30.03,29.95,10,8,0,17,3,22,0.00,4,Fog,51
2013-6-5,81,71,60,66,61,57,93,71,48,30.15,30.08,30.01,10,10,5,8,2,12,0.00,5,,106
2013-6-6,73,69,65,70,66,56,93,77,61,30.01,29.88,29.79,10,6,1,9,4,14,0.75,8,Rain,120
2013-6-7,74,71,68,70,67,66,93,89,84,29.86,29.73,29.59,10,8,1,16,5,22,0.59,7,Rain,335
2013-6-8,83,74,64,67,62,58,93,70,47,30.08,29.95,29.81,10,8,2,10,2,13,0.20,4,Rain,236
2013-6-9,88,76,64,70,66,62,93,72,50,30.14,30.09,30.04,10,9,4,16,3,28,0.09,2,Rain-Thunderstorm,187
2013-6-10,84,76,68,72,69,66,93,81,69,30.10,29.97,29.85,10,8,1,20,6,30,0.67,6,Rain-Thunderstorm,197
2013-6-11,84,76,67,67,65,62,93,71,48,29.94,29.90,29.87,10,10,8,16,7,23,0.02,3,Rain,249
2013-6-12,90,78,65,74,68,62,93,74,55,29.95,29.90,29.84,10,10,7,15,6,18,0.00,0,Thunderstorm,235
2013-6-13,94,81,67,73,67,61,93,69,44,29.83,29.71,29.58,10,7,1,33,7,47,0.23,2,Rain-Thunderstorm,237
2013-6-14,81,71,60,61,56,53,90,66,42,30.01,29.87,29.73,10,10,10,15,6,23,0.00,2,,323
2013-6-15,85,71,57,62,58,56,97,69,40,30.12,30.05,30.02,10,9,5,15,4,21,0.00,0,,235
2013-6-16,88,76,63,68,65,60,87,69,50,30.08,30.02,29.97,10,8,2,17,7,23,0.00,1,,224
2013-6-17,84,78,71,72,68,66,93,79,65,30.04,29.99,29.91,10,6,1,10,3,22,0.07,3,Rain-Thunderstorm,215
2013-6-18,81,74,67,72,68,66,93,84,74,29.93,29.85,29.77,10,8,0,22,4,26,1.26,6,Fog-Rain-Thunderstorm,318
2013-6-19,80,71,62,66,64,60,93,76,58,30.06,29.98,29.88,10,8,2,9,4,,0.00,1,,42
2013-6-20,82,73,64,64,62,61,87,69,51,30.24,30.22,30.19,10,6,0,9,2,13,0.00,1,,90
2013-6-21,83,71,58,61,57,53,93,67,40,30.28,30.24,30.20,,,,13,3,15,0.00,0,,57
2013-6-22,85,74,63,70,66,59,90,79,67,30.26,30.21,30.13,,,,13,4,17,0.12,6,Rain,47
2013-6-23,88,78,67,71,67,64,97,74,50,30.23,30.16,30.10,,,,10,3,15,0.00,4,,239
2013-6-24,88,78,68,76,70,65,93,76,59,30.21,30.14,30.06,,,,23,5,33,0.52,3,Rain,215
2013-6-25,90,80,69,73,69,67,97,72,47,30.09,30.04,29.98,10,10,10,14,5,18,0.00,0,,229
2013-6-26,91,80,69,72,68,65,97,75,52,29.98,29.94,29.86,10,9,1,26,5,36,0.43,2,Rain,234
2013-6-27,87,78,68,72,69,66,97,78,59,29.90,29.80,29.69,10,8,2,18,7,24,T,5,Rain,222
2013-6-28,92,81,70,72,70,67,93,73,52,29.71,29.63,29.56,10,9,2,18,7,29,0.28,2,Rain,230
2013-6-29,87,77,67,70,68,64,97,74,51,29.69,29.64,29.58,10,9,4,12,5,17,0.00,2,,219
2013-6-30,86,78,70,73,71,67,93,75,57,29.86,29.76,29.69,10,9,4,9,2,17,0.15,6,Rain,189